Regional Weather Roundup
Issued by NWS Upton, NY

Current Version | Previous Version | Graphics & Text | Print | Product List | Glossary Off
Versions: 1 2 3 4 5 6 7 8 9 10 11 12 13 14 15 16 17 18 19 20 21 22 23 24 25 26 27 28 29 30 31 32 33 34 35 36 37 38 39 40 41 42 43 44 45 46 47 48 49 50

000
ASUS41 KOKX 261707
RWROKX

REGIONAL WEATHER ROUNDUP
NATIONAL WEATHER SERVICE NEW YORK NY
100 PM EDT THU MAR 26 2015

NOTE: "FAIR" INDICATES FEW OR NO CLOUDS BELOW 12,000 FEET WITH NO
SIGNIFICANT WEATHER AND/OR OBSTRUCTIONS TO VISIBILITY.

NYZ071-072-176-178-NJZ106-104-261800-
NEW YORK CITY METRO AREA


CITY           SKY/WX    TMP DP  RH WIND       PRES   REMARKS
CENTRAL PARK   LGT RAIN  50  48  93 CALM      29.84F FOG
LAGUARDIA APRT LGT RAIN  49  46  90 VRB6      29.83F FOG
KENNEDY INTL   LGT RAIN  46  44  93 E5        29.85F VSB 1/2
NEWARK/LIBERTY LGT RAIN  47  46  97 CALM      29.84F FOG
BRNX BOT. GARD   N/A     46  46 100 S1        29.84F
TETERBORO      LGT RAIN  46  45  93 SW3       29.83F FOG
$$

NYZ177-179-078>081-261800-
LONG ISLAND NEW YORK

CITY           SKY/WX    TMP DP  RH WIND       PRES   REMARKS
FARMINGDALE    TSTM      46  45  96 S8        29.86F VSB 1
ISLIP          LGT RAIN  46  44  93 S9        29.84F VSB 1/2
SHIRLEY        LGT RAIN  48  46  93 S10       29.87F FOG
WESTHAMPTON    LGT RAIN  46  45  96 S7        29.88F FOG
MONTAUK POINT    N/A     46  44  93 S5        29.88F
$$

NYZ052-065-067-261800-
HUDSON VALLEY

CITY           SKY/WX    TMP DP  RH WIND       PRES   REMARKS
WHITE PLAINS   LGT RAIN  45  44  97 S5        29.83F VSB 1/2
NEWBURGH       NOT AVBL
MONTGOMERY     CLOUDY    45  43  93 W3        29.78F FOG
POUGHKEEPSIE   LGT RAIN  47  42  83 VRB3      29.80F
ALBANY         RAIN      42  38  85 NE3       29.79F FOG
$$

NJZ001-105-106-008-010-013-015-019>022-104-261800-
NEW JERSEY

CITY           SKY/WX    TMP DP  RH WIND       PRES   REMARKS
NEWARK/LIBERTY LGT RAIN  47  46  97 CALM      29.84F FOG
TETERBORO      LGT RAIN  46  45  93 SW3       29.83F FOG
CALDWELL       LGT RAIN  47  43  86 VRB3      29.84F FOG
MORRISTOWN     LGT RAIN  46  45  93 SW5       29.84F VSB 1
SOMERVILLE     CLOUDY    48  44  86 CALM      29.82F FOG
SUSSEX         CLOUDY    45  40  82 VRB3      29.80F HAZE
ANDOVER          N/A     46  44  93 SW6       29.80F
TRENTON        CLOUDY    52  49  89 SE5       29.81F FOG
MILLVILLE      CLOUDY    61  57  87 VRB3      29.84F
ATLANTIC CITY  PTSUNNY   56  52  86 S15G22    29.85F
WRIGHTSTOWN    CLOUDY    61  61 100 SW10      29.80F
TOMS RIVER     CLOUDY    63  57  82 S12G24    29.84F
BELMAR         CLOUDY    55  52  88 S6        29.84F
$$

PAZ047>061-062-071-261800-
EASTERN PENNSYLVANIA

CITY           SKY/WX    TMP DP  RH WIND       PRES   REMARKS
PHILADELPHIA   LGT RAIN  57  55  93 SW7       29.81F FOG
ALLENTOWN      RAIN      47  43  86 NE3       29.79F FOG
SCRANTON       LGT RAIN  50  43  77 VRB3      29.73F
$$

CTZ002-004>006-009-010-012-RIZ004-006-007-MAZ004-011-015-261800-
SOUTHERN NEW ENGLAND
 IN CT

CITY           SKY/WX    TMP DP  RH WIND       PRES   REMARKS
BRADLEY INTL   LGT RAIN  46  41  82 S8        29.81F
HARTFORD       CLOUDY    46  43  89 S8        29.83F FOG
DANBURY        RAIN      46  41  82 S5        29.83F
WTRBRY/OXFORD  FOG       45  39  81 VRB5      29.83F VSB 1
BRIDGEPORT     LGT RAIN  40  40 100 E6        29.85F VSB 1
MERIDEN        CLOUDY    45  43  93 S6        29.83F FOG
NEW HAVEN      LGT RAIN  43  41  93 CALM      29.84F FOG
CHESTER        CLOUDY    46  46 100 S6        29.86F FOG
GROTON         RAIN      43  41  93 S6        29.86F VSB 3/4
WILLIMANTIC    LGT RAIN  46  44  93 S6        29.85F FOG

 IN RI

CITY           SKY/WX    TMP DP  RH WIND       PRES   REMARKS
PROVIDENCE     LGT RAIN  49  47  93 S13       29.85F FOG
BLOCK ISLAND   CLOUDY    45  41  87 SW8       29.87F VSB 3/4
WESTERLY       LGT RAIN  43  42  97 S5        29.87F FOG

 IN MA

CITY           SKY/WX    TMP DP  RH WIND       PRES   REMARKS
BOSTON         CLOUDY    54  45  71 S12       29.81F
WORCESTER      LGT RAIN  47  41  80 S13       29.80F
WESTFIELD      CLOUDY    44  39  82 S8        29.80F
PROVINCETOWN   CLOUDY    45  41  87 S13       29.86F
NANTUCKET      LGT RAIN  43  41  93 S15       29.92F VSB 1/2
$$

ANZ330-335-338-340-345-350-353-355-261800-
COASTAL MARINE OBSERVATIONS


STATION/POSITION TIME  SKY/WX   TEMP    WIND        PRES    VSBY  WAVE
                                AIR SEA DIR/SP/G                  HT/PER
                 (UTC)          (F)     (DEG/KT/KT) (MB)    (MI)  (FT/S)
NY HARB ENTRANCE 1650            42 39  200/ 12/ 14 1010.6          4/ 7
4S FIRE IS       1603               37                N/A           5/ 7
20S FIRE ISLAND  1550               38              1012.5          5/ 7
23SW MTP         1650                                 N/A           4/ 6
HUDSON CANYON    NOT AVBL
EXECUTION ROCKS  NOT AVBL
WESTERN LI SOUND NOT AVBL
CENTRAL LI SOUND NOT AVBL
EASTERN LI SOUND NOT AVBL
ROBBINS REEF     1600            44     190/  5/  6 1010.4
$$


>>>>>>>>>>>>>>>>>>>>>>>>>>>> KEY <<<<<<<<<<<<<<<<<<<<<<<<<<<
>                                                          <
>     SKY/WX - SKY CONDITION/PRESENT WEATHER               <
>     TMP    - TEMPERATURE IN FAHRENHEIT                   <
>     DP     - DEWPOINT IN FAHRENHEIT                      <
>     RH     - RELATIVE HUMIDITY IN PERCENT                <
>     WIND   - DIRECTION AND SPEED IN MPH                  <
>     PRES   - MEAN SEA LEVEL PRESSURE IN INCHES OF HG     <
>     WCI    - WIND CHILL INDEX                            <
>     VSB    - VISIBILITY IN MILES                         <
>     HX     - HEAT INDEX                                  <
>     TC     - TEMPERATURE IN CELSIUS                      <
>     VRB    - VARIABLE WIND DIRECTION                     <
>                                                          <
>>>>>>>>>>>>>>>>>>>>>>>>>>>> KEY <<<<<<<<<<<<<<<<<<<<<<<<<<<





USA.gov is the U.S. government's official web portal to all federal, state and local government web resources and services.